Showing default

OCO 2, 40059

Orbit data source: Space-Track

OCO 2, 40059 is a payload satellite owned by GSFC (US) in SSO that was launched on Wed, 02 Jul 2014 UTC via a DELTA 7320-10C launch vehicle from the Air Force Western Test Range (AFWTR). Payloads include a variety of satellites, spacecraft, and rockets equipped with specific instruments for various scientific and technological missions. These include communications satellites like Starlink; space stations such as the ISS; scientific satellites like the Hubble; Earth observation satellites from companies like Planet Labs, Umbra, and HawkEye 360; GPS; miniature CubeSats for education and research; and military/defense satellites.

Loading next visibility...
OCO 2 details
Identifier
40059, 2014-035A
Orbit
SSO
Last TLE update10 hours ago
Origin
Flag of USGSFC (US)
ManufacturerOSC
MissionOperational Civil Science
Bus & MotorLEOSTAR-2, AOCS
Mass454 kg wet, 409 kg dry
Launch date (UTC)
2014-07-02 (10 years ago)
Launch vehicle
DELTA 7320-10C
Launch site
Air Force Western Test Range (AFWTR)
Object type
Payload
Rocket body
Debris
Shape & HBRHex Cyl + 2 Pan, 9 m
Radar Cross Section3.820 m², Large (>1 m²)

Expand to show TLE details & history

TLE from 10 hours ago
0 OCO 2
1 40059U 14035A   24346.57170754  .00001391  00000-0  31856-3 0  9996
2 40059  98.2221 284.8015 0001581  79.1416 280.9960 14.57143440555579
Epoch: 2024-12-11T13:43Z
Definitive object data (Epoch: 2024-12-11T13:43:15.531Z)
Latitude-0.00005°
Longitude-1.77768°
Altitude705.18 km
Speed7.503 km/s
True Right ascension18h 59m 12s
True Declination0° 00' 00"
Sunlit
Object was in daylight at TLE epoch
Visualization TLE readout
Latitude-73.80301°
Longitude28.27075°
Altitude730.426 km
Speed7.488 km/s
Apparent Right ascension10h 06m 53s
Apparent Declination-74° 45' 55"
Sunlit
Object is in daylight
Visualization observer readout
Local Sidereal Time21:39:49
Azimuth183.095° SSW
Elevation-55.01°
Doppler factor1
Orbital elements
Apogee altitude700.618 km
Perigee altitude698.38 km
Semi-major axis7,077.636 km
Eccentricity0.0001581
Inclination98.2221°
RAAN284.8015°
Arg. of periapsis79.1416°
True anomaly280.97822°
Mean anomaly280.996°
Eccentric anomaly280.98711°
Mean motion3.64511 °/min
BSTAR0.00031856
Orbital period98.76 mins
Loading maneuver chart data...
Loading historical data...
Loading historical data...
Loading historical data...
Loading historical data...
Loading historical data...
Loading historical data...
Loading historical data...
Other satellites on launch #35 in the year 2014 (2014-07-02 UTC)

OCO 2 Visibility forecast

Observer location: undefined°, undefined

Span
Click to sort rows by Start time (UTC) header in descending order
Start Az.
Max El. time (UTC)
Max El. Az.
Max El.
End time (UTC)
End Az.
8 mins2024-12-12 08:25:40.696Z31.688° NE2024-12-12 08:29:40.696Z100.527° ESE32.09°2024-12-12 08:33:40.696Z165.479° S
5 mins2024-12-12 10:04:40.696Z331.56° NNW2024-12-12 10:06:40.696Z301.222° NW19.925°2024-12-12 10:09:40.696Z254.052° W
7 mins2024-12-12 19:31:40.696Z131.045° SE2024-12-12 19:34:40.696Z71.766° E32.679°2024-12-12 19:38:40.696Z4.506° NNE
5 mins2024-12-12 21:10:40.696Z236.089° WSW2024-12-12 21:12:40.696Z268.207° W18.914°2024-12-12 21:15:40.696Z310.447° NW
|